Time,TemperatureF,DewpointF,PressureIn,WindDirection,WindDirectionDegrees,WindSpeedMPH,WindSpeedGustMPH,Humidity,HourlyPrecipIn,Conditions,Clouds,dailyrainin,SoftwareType,DateUTC
2013-09-05 00:04:00,72.4,62.9,30.08,SE,125,3.0,5.0,72,0.00,,,0.00,Wunderground v.1.15,2013-09-05 05:04:00,
2013-09-05 00:09:00,72.4,62.9,30.08,SE,128,3.0,5.0,72,0.00,,,0.00,Wunderground v.1.15,2013-09-05 05:09:00,
2013-09-05 00:14:00,72.3,62.8,30.09,SE,126,3.0,5.0,72,0.00,,,0.00,Wunderground v.1.15,2013-09-05 05:14:00,
2013-09-05 00:19:00,72.2,62.7,30.09,ESE,119,3.0,5.0,72,0.00,,,0.00,Wunderground v.1.15,2013-09-05 05:19:00,
2013-09-05 00:24:00,72.2,62.7,30.08,ESE,123,3.0,7.0,72,0.00,,,0.00,Wunderground v.1.15,2013-09-05 05:24:00,
2013-09-05 00:29:00,72.2,62.7,30.09,SE,129,3.0,7.0,72,0.00,,,0.00,Wunderground v.1.15,2013-09-05 05:29:00,
2013-09-05 00:34:00,72.1,63.0,30.09,SE,133,4.0,5.0,73,0.00,,,0.00,Wunderground v.1.15,2013-09-05 05:34:00,
2013-09-05 00:39:00,71.9,62.8,30.08,SE,132,4.0,5.0,73,0.00,,,0.00,Wunderground v.1.15,2013-09-05 05:39:00,
2013-09-05 00:44:00,71.9,62.8,30.09,SE,131,4.0,5.0,73,0.00,,,0.00,Wunderground v.1.15,2013-09-05 05:44:00,
2013-09-05 00:50:00,71.9,62.8,30.08,ESE,116,3.0,5.0,73,0.00,,,0.00,Wunderground v.1.15,2013-09-05 05:50:00,
2013-09-05 00:56:00,72.0,62.9,30.08,SE,126,3.0,5.0,73,0.00,,,0.00,Wunderground v.1.15,2013-09-05 05:56:00,
2013-09-05 01:02:00,72.0,62.9,30.08,ESE,117,3.0,4.0,73,0.00,,,0.00,Wunderground v.1.15,2013-09-05 06:02:00,
2013-09-05 01:08:00,72.0,62.9,30.09,ESE,115,3.0,5.0,73,0.00,,,0.00,Wunderground v.1.15,2013-09-05 06:08:00,
2013-09-05 01:13:00,71.9,62.8,30.09,ESE,116,3.0,5.0,73,0.00,,,0.00,Wunderground v.1.15,2013-09-05 06:13:00,
2013-09-05 01:18:00,71.8,62.7,30.09,ESE,113,3.0,5.0,73,0.00,,,0.00,Wunderground v.1.15,2013-09-05 06:18:00,
2013-09-05 01:23:00,71.6,62.5,30.09,ESE,109,4.0,5.0,73,0.00,,,0.00,Wunderground v.1.15,2013-09-05 06:23:00,
2013-09-05 01:29:00,71.3,62.6,30.09,SE,126,4.0,5.0,74,0.00,,,0.00,Wunderground v.1.15,2013-09-05 06:29:00,
2013-09-05 01:34:00,71.3,62.6,30.09,ESE,117,4.0,8.0,74,0.00,,,0.00,Wunderground v.1.15,2013-09-05 06:34:00,
2013-09-05 01:39:00,71.3,62.6,30.08,ESE,116,4.0,8.0,74,0.00,,,0.00,Wunderground v.1.15,2013-09-05 06:39:00,
2013-09-05 01:44:00,71.3,62.6,30.09,SE,126,4.0,7.0,74,0.00,,,0.00,Wunderground v.1.15,2013-09-05 06:44:00,
2013-09-05 01:49:00,71.1,62.8,30.09,SE,131,4.0,7.0,75,0.00,,,0.00,Wunderground v.1.15,2013-09-05 06:49:00,
2013-09-05 01:54:00,70.9,62.6,30.09,SE,128,4.0,5.0,75,0.00,,,0.00,Wunderground v.1.15,2013-09-05 06:54:00,
2013-09-05 01:59:00,70.7,62.8,30.08,ESE,118,4.0,7.0,76,0.00,,,0.00,Wunderground v.1.15,2013-09-05 06:59:00,
2013-09-05 02:05:00,70.5,62.6,30.09,SE,134,4.0,6.0,76,0.00,,,0.00,Wunderground v.1.15,2013-09-05 07:05:00,
2013-09-05 02:10:00,70.5,62.6,30.09,SE,130,4.0,4.0,76,0.00,,,0.00,Wunderground v.1.15,2013-09-05 07:10:00,
2013-09-05 02:15:00,70.6,62.7,30.08,SE,130,3.0,7.0,76,0.00,,,0.00,Wunderground v.1.15,2013-09-05 07:15:00,
2013-09-05 02:20:00,70.6,62.7,30.08,SE,128,4.0,5.0,76,0.00,,,0.00,Wunderground v.1.15,2013-09-05 07:20:00,
2013-09-05 02:25:00,70.6,62.7,30.09,SE,132,4.0,6.0,76,0.00,,,0.00,Wunderground v.1.15,2013-09-05 07:25:00,
2013-09-05 02:31:00,70.5,62.6,30.09,SE,140,4.0,5.0,76,0.00,,,0.00,Wunderground v.1.15,2013-09-05 07:31:00,
2013-09-05 02:36:00,70.5,62.6,30.09,SE,140,4.0,5.0,76,0.00,,,0.00,Wunderground v.1.15,2013-09-05 07:36:00,
2013-09-05 02:41:00,70.3,62.7,30.09,SE,134,4.0,6.0,77,0.00,,,0.00,Wunderground v.1.15,2013-09-05 07:41:00,
2013-09-05 02:46:00,70.3,62.7,30.09,ESE,117,4.0,6.0,77,0.00,,,0.00,Wunderground v.1.15,2013-09-05 07:46:00,
2013-09-05 02:51:00,70.3,62.7,30.09,ESE,108,4.0,5.0,77,0.00,,,0.00,Wunderground v.1.15,2013-09-05 07:51:00,
2013-09-05 02:57:00,69.9,62.4,30.09,East,100,4.0,6.0,77,0.00,,,0.00,Wunderground v.1.15,2013-09-05 07:57:00,
2013-09-05 03:02:00,69.6,62.4,30.08,ESE,115,4.0,5.0,78,0.00,,,0.00,Wunderground v.1.15,2013-09-05 08:02:00,
2013-09-05 03:08:00,69.6,62.8,30.08,ESE,121,4.0,7.0,79,0.00,,,0.00,Wunderground v.1.15,2013-09-05 08:08:00,
2013-09-05 03:13:00,69.5,62.7,30.08,ESE,117,4.0,4.0,79,0.00,,,0.00,Wunderground v.1.15,2013-09-05 08:13:00,
2013-09-05 03:19:00,69.0,63.3,30.08,ESE,123,3.0,4.0,82,0.00,,,0.00,Wunderground v.1.15,2013-09-05 08:19:00,
2013-09-05 03:24:00,68.1,63.1,30.08,SE,125,3.0,5.0,84,0.00,,,0.00,Wunderground v.1.15,2013-09-05 08:24:00,
2013-09-05 03:29:00,67.6,63.3,30.08,ESE,120,4.0,7.0,86,0.00,,,0.00,Wunderground v.1.15,2013-09-05 08:29:00,
2013-09-05 03:34:00,67.2,63.2,30.08,SE,132,4.0,6.0,87,0.00,,,0.00,Wunderground v.1.15,2013-09-05 08:34:00,
2013-09-05 03:39:00,66.8,63.1,30.08,SE,138,4.0,6.0,88,0.00,,,0.00,Wunderground v.1.15,2013-09-05 08:39:00,
2013-09-05 03:45:00,66.4,63.1,30.08,SSE,148,4.0,6.0,89,0.00,,,0.00,Wunderground v.1.15,2013-09-05 08:45:00,
2013-09-05 03:51:00,66.5,63.2,30.08,SSE,159,4.0,5.0,89,0.00,,,0.00,Wunderground v.1.15,2013-09-05 08:51:00,
2013-09-05 03:57:00,66.7,63.4,30.08,SSE,156,4.0,6.0,89,0.00,,,0.00,Wunderground v.1.15,2013-09-05 08:57:00,
2013-09-05 04:02:00,66.9,63.2,30.08,SSE,155,4.0,5.0,88,0.00,,,0.00,Wunderground v.1.15,2013-09-05 09:02:00,
2013-09-05 04:08:00,66.8,63.1,30.08,SSE,151,5.0,7.0,88,0.00,,,0.00,Wunderground v.1.15,2013-09-05 09:08:00,
2013-09-05 04:13:00,66.6,63.3,30.08,SSE,156,5.0,5.0,89,0.00,,,0.00,Wunderground v.1.15,2013-09-05 09:13:00,
2013-09-05 04:18:00,66.6,63.3,30.08,SSE,157,4.0,5.0,89,0.00,,,0.00,Wunderground v.1.15,2013-09-05 09:18:00,
2013-09-05 04:23:00,66.8,63.1,30.08,SSE,153,3.0,5.0,88,0.00,,,0.00,Wunderground v.1.15,2013-09-05 09:23:00,
2013-09-05 04:29:00,66.9,63.2,30.08,SSE,160,4.0,6.0,88,0.00,,,0.00,Wunderground v.1.15,2013-09-05 09:29:00,
2013-09-05 04:35:00,67.1,63.1,30.08,SSE,156,4.0,6.0,87,0.00,,,0.00,Wunderground v.1.15,2013-09-05 09:35:00,
2013-09-05 04:41:00,66.9,63.2,30.08,SSE,157,3.0,4.0,88,0.00,,,0.00,Wunderground v.1.15,2013-09-05 09:41:00,
2013-09-05 04:46:00,66.8,63.1,30.08,SSE,157,3.0,4.0,88,0.00,,,0.00,Wunderground v.1.15,2013-09-05 09:46:00,
2013-09-05 04:51:00,66.7,63.0,30.08,SSE,157,3.0,4.0,88,0.00,,,0.00,Wunderground v.1.15,2013-09-05 09:51:00,
2013-09-05 04:56:00,66.6,62.9,30.08,SSE,157,3.0,4.0,88,0.00,,,0.00,Wunderground v.1.15,2013-09-05 09:56:00,
2013-09-05 05:02:00,66.6,63.3,30.08,SSE,157,3.0,3.0,89,0.00,,,0.00,Wunderground v.1.15,2013-09-05 10:02:00,
2013-09-05 05:08:00,66.4,62.7,30.08,ESE,117,3.0,4.0,88,0.00,,,0.00,Wunderground v.1.15,2013-09-05 10:08:00,
2013-09-05 05:14:00,66.2,62.9,30.08,ESE,112,3.0,4.0,89,0.00,,,0.00,Wunderground v.1.15,2013-09-05 10:14:00,
2013-09-05 05:20:00,65.9,62.6,30.08,ESE,102,3.0,3.0,89,0.00,,,0.00,Wunderground v.1.15,2013-09-05 10:20:00,
2013-09-05 05:26:00,65.7,62.4,30.08,East,86,3.0,3.0,89,0.00,,,0.00,Wunderground v.1.15,2013-09-05 10:26:00,
2013-09-05 05:31:00,65.4,62.1,30.08,East,82,3.0,5.0,89,0.00,,,0.00,Wunderground v.1.15,2013-09-05 10:31:00,
2013-09-05 05:36:00,65.3,62.3,30.09,East,82,3.0,5.0,90,0.00,,,0.00,Wunderground v.1.15,2013-09-05 10:36:00,
2013-09-05 05:42:00,65.3,62.3,30.09,East,82,2.0,3.0,90,0.00,,,0.00,Wunderground v.1.15,2013-09-05 10:42:00,
2013-09-05 05:47:00,65.3,62.3,30.09,East,82,2.0,3.0,90,0.00,,,0.00,Wunderground v.1.15,2013-09-05 10:47:00,
2013-09-05 05:52:00,65.3,62.3,30.09,East,82,2.0,3.0,90,0.00,,,0.00,Wunderground v.1.15,2013-09-05 10:52:00,
2013-09-05 05:57:00,65.3,62.3,30.09,East,82,2.0,3.0,90,0.00,,,0.00,Wunderground v.1.15,2013-09-05 10:57:00,
2013-09-05 06:03:00,65.3,62.3,30.09,East,82,2.0,2.0,90,0.00,,,0.00,Wunderground v.1.15,2013-09-05 11:03:00,
2013-09-05 06:08:00,65.3,62.3,30.09,East,82,2.0,3.0,90,0.00,,,0.00,Wunderground v.1.15,2013-09-05 11:08:00,
2013-09-05 06:13:00,65.4,62.4,30.09,East,90,2.0,3.0,90,0.00,,,0.00,Wunderground v.1.15,2013-09-05 11:13:00,
2013-09-05 06:18:00,65.6,62.6,30.09,East,90,2.0,3.0,90,0.00,,,0.00,Wunderground v.1.15,2013-09-05 11:18:00,
2013-09-05 06:23:00,65.6,62.6,30.10,East,90,2.0,2.0,90,0.00,,,0.00,Wunderground v.1.15,2013-09-05 11:23:00,
2013-09-05 06:29:00,65.6,62.3,30.10,East,90,2.0,2.0,89,0.00,,,0.00,Wunderground v.1.15,2013-09-05 11:29:00,
2013-09-05 06:34:00,65.4,61.8,30.09,East,90,1.0,2.0,88,0.00,,,0.00,Wunderground v.1.15,2013-09-05 11:34:00,
2013-09-05 06:40:00,65.1,61.5,30.10,East,90,0.0,0.0,88,0.00,,,0.00,Wunderground v.1.15,2013-09-05 11:40:00,
2013-09-05 06:45:00,65.1,61.8,30.10,ESE,110,0.0,0.0,89,0.00,,,0.00,Wunderground v.1.15,2013-09-05 11:45:00,
2013-09-05 06:51:00,65.1,61.8,30.09,SSE,148,1.0,4.0,89,0.00,,,0.00,Wunderground v.1.15,2013-09-05 11:51:00,
2013-09-05 06:56:00,65.2,61.9,30.09,SSE,154,3.0,4.0,89,0.00,,,0.00,Wunderground v.1.15,2013-09-05 11:56:00,
2013-09-05 07:01:00,65.5,61.9,30.10,SSE,168,3.0,4.0,88,0.00,,,0.00,Wunderground v.1.15,2013-09-05 12:01:00,
2013-09-05 07:06:00,65.8,62.1,30.10,South,178,3.0,5.0,88,0.00,,,0.00,Wunderground v.1.15,2013-09-05 12:06:00,
2013-09-05 07:12:00,66.3,62.3,30.10,South,180,4.0,5.0,87,0.00,,,0.00,Wunderground v.1.15,2013-09-05 12:12:00,
2013-09-05 07:17:00,66.7,62.4,30.10,South,177,4.0,5.0,86,0.00,,,0.00,Wunderground v.1.15,2013-09-05 12:17:00,
2013-09-05 07:23:00,67.0,62.7,30.10,South,177,3.0,4.0,86,0.00,,,0.00,Wunderground v.1.15,2013-09-05 12:23:00,
2013-09-05 07:29:00,67.2,62.5,30.11,South,177,3.0,4.0,85,0.00,,,0.00,Wunderground v.1.15,2013-09-05 12:29:00,
2013-09-05 07:35:00,67.4,62.7,30.11,South,177,2.0,3.0,85,0.00,,,0.00,Wunderground v.1.15,2013-09-05 12:35:00,
2013-09-05 07:41:00,67.6,62.9,30.11,South,177,2.0,2.0,85,0.00,,,0.00,Wunderground v.1.15,2013-09-05 12:41:00,
2013-09-05 07:47:00,67.9,63.2,30.11,South,177,1.0,2.0,85,0.00,,,0.00,Wunderground v.1.15,2013-09-05 12:47:00,
2013-09-05 07:53:00,68.1,63.1,30.11,South,169,0.0,0.0,84,0.00,,,0.00,Wunderground v.1.15,2013-09-05 12:53:00,
2013-09-05 07:59:00,68.6,63.2,30.11,South,169,0.0,0.0,83,0.00,,,0.00,Wunderground v.1.15,2013-09-05 12:59:00,
2013-09-05 08:05:00,69.2,63.5,30.11,South,169,0.0,0.0,82,0.00,,,0.00,Wunderground v.1.15,2013-09-05 13:05:00,
2013-09-05 08:10:00,69.6,63.5,30.11,SE,128,0.0,2.0,81,0.00,,,0.00,Wunderground v.1.15,2013-09-05 13:10:00,
2013-09-05 08:15:00,69.9,63.4,30.11,SE,134,1.0,3.0,80,0.00,,,0.00,Wunderground v.1.15,2013-09-05 13:15:00,
2013-09-05 08:21:00,70.4,63.9,30.11,SE,132,2.0,3.0,80,0.00,,,0.00,Wunderground v.1.15,2013-09-05 13:21:00,
2013-09-05 08:27:00,70.7,63.9,30.11,SSE,159,2.0,3.0,79,0.00,,,0.00,Wunderground v.1.15,2013-09-05 13:27:00,
2013-09-05 08:32:00,71.0,63.8,30.11,SSE,150,2.0,4.0,78,0.00,,,0.00,Wunderground v.1.15,2013-09-05 13:32:00,
2013-09-05 08:38:00,71.6,64.0,30.11,SSE,162,3.0,6.0,77,0.00,,,0.00,Wunderground v.1.15,2013-09-05 13:38:00,
2013-09-05 08:44:00,72.1,64.1,30.11,South,172,4.0,8.0,76,0.00,,,0.00,Wunderground v.1.15,2013-09-05 13:44:00,
2013-09-05 08:49:00,72.7,64.3,30.11,SSE,168,5.0,8.0,75,0.00,,,0.00,Wunderground v.1.15,2013-09-05 13:49:00,
2013-09-05 08:55:00,73.2,64.0,30.11,SSE,166,6.0,9.0,73,0.00,,,0.00,Wunderground v.1.15,2013-09-05 13:55:00,
2013-09-05 09:00:00,73.6,64.0,30.11,SSE,164,6.0,6.0,72,0.00,,,0.00,Wunderground v.1.15,2013-09-05 14:00:00,
2013-09-05 09:06:00,74.1,64.5,30.11,SSE,168,6.0,10.0,72,0.00,,,0.00,Wunderground v.1.15,2013-09-05 14:06:00,
2013-09-05 09:11:00,74.6,64.2,30.11,South,185,6.0,8.0,70,0.00,,,0.00,Wunderground v.1.15,2013-09-05 14:11:00,
2013-09-05 09:17:00,75.1,64.6,30.11,SSE,168,5.0,8.0,70,0.00,,,0.00,Wunderground v.1.15,2013-09-05 14:17:00,
2013-09-05 09:23:00,75.7,65.2,30.11,SSE,150,4.0,6.0,70,0.00,,,0.00,Wunderground v.1.15,2013-09-05 14:23:00,
2013-09-05 09:28:00,76.4,65.1,30.12,SSE,153,3.0,6.0,68,0.00,,,0.00,Wunderground v.1.15,2013-09-05 14:28:00,
2013-09-05 09:34:00,77.2,65.8,30.12,SSE,162,3.0,6.0,68,0.00,,,0.00,Wunderground v.1.15,2013-09-05 14:34:00,
2013-09-05 09:40:00,77.5,65.2,30.12,SE,128,4.0,6.0,66,0.00,,,0.00,Wunderground v.1.15,2013-09-05 14:40:00,
2013-09-05 09:45:00,78.1,65.4,30.12,SE,142,5.0,7.0,65,0.00,,,0.00,Wunderground v.1.15,2013-09-05 14:45:00,
2013-09-05 09:51:00,78.7,65.0,30.12,South,178,5.0,6.0,63,0.00,,,0.00,Wunderground v.1.15,2013-09-05 14:51:00,
2013-09-05 09:56:00,78.9,64.8,30.12,SSE,152,5.0,9.0,62,0.00,,,0.00,Wunderground v.1.15,2013-09-05 14:56:00,
2013-09-05 10:01:00,79.1,65.0,30.12,SSE,157,6.0,6.0,62,0.00,,,0.00,Wunderground v.1.15,2013-09-05 15:01:00,
2013-09-05 10:07:00,79.4,64.8,30.13,South,183,6.0,9.0,61,0.00,,,0.00,Wunderground v.1.15,2013-09-05 15:07:00,
2013-09-05 10:12:00,79.9,65.2,30.13,SSE,149,6.0,9.0,61,0.00,,,0.00,Wunderground v.1.15,2013-09-05 15:12:00,
2013-09-05 10:18:00,80.5,65.3,30.13,SSE,148,6.0,9.0,60,0.00,,,0.00,Wunderground v.1.15,2013-09-05 15:18:00,
2013-09-05 10:24:00,81.0,65.8,30.13,SSE,155,7.0,10.0,60,0.00,,,0.00,Wunderground v.1.15,2013-09-05 15:24:00,
2013-09-05 10:29:00,81.2,65.0,30.13,South,169,7.0,10.0,58,0.00,,,0.00,Wunderground v.1.15,2013-09-05 15:29:00,
2013-09-05 10:35:00,81.6,66.4,30.13,South,184,6.0,11.0,60,0.00,,,0.00,Wunderground v.1.15,2013-09-05 15:35:00,
2013-09-05 10:40:00,82.1,65.9,30.13,SE,139,7.0,7.0,58,0.00,,,0.00,Wunderground v.1.15,2013-09-05 15:40:00,
2013-09-05 10:46:00,82.9,66.1,30.13,SSE,153,7.0,10.0,57,0.00,,,0.00,Wunderground v.1.15,2013-09-05 15:46:00,
2013-09-05 10:51:00,83.0,65.2,30.13,SSE,155,7.0,9.0,55,0.00,,,0.00,Wunderground v.1.15,2013-09-05 15:51:00,
2013-09-05 10:56:00,83.2,64.8,30.13,SSE,153,7.0,10.0,54,0.00,,,0.00,Wunderground v.1.15,2013-09-05 15:56:00,
2013-09-05 11:02:00,83.1,64.7,30.13,SSE,167,7.0,10.0,54,0.00,,,0.00,Wunderground v.1.15,2013-09-05 16:02:00,
2013-09-05 11:08:00,83.3,65.4,30.13,SSE,159,7.0,10.0,55,0.00,,,0.00,Wunderground v.1.15,2013-09-05 16:08:00,
2013-09-05 11:14:00,83.7,65.3,30.13,South,174,7.0,11.0,54,0.00,,,0.00,Wunderground v.1.15,2013-09-05 16:14:00,
2013-09-05 11:19:00,83.7,64.8,30.13,SSE,153,7.0,11.0,53,0.00,,,0.00,Wunderground v.1.15,2013-09-05 16:19:00,
2013-09-05 11:25:00,84.3,65.8,30.12,South,173,8.0,11.0,54,0.00,,,0.00,Wunderground v.1.15,2013-09-05 16:25:00,
2013-09-05 11:30:00,84.4,65.4,30.12,South,180,8.0,12.0,53,0.00,,,0.00,Wunderground v.1.15,2013-09-05 16:30:00,
2013-09-05 11:36:00,84.9,65.9,30.12,SSE,159,8.0,14.0,53,0.00,,,0.00,Wunderground v.1.15,2013-09-05 16:36:00,
2013-09-05 11:41:00,85.1,64.4,30.12,South,190,8.0,12.0,50,0.00,,,0.00,Wunderground v.1.15,2013-09-05 16:41:00,
2013-09-05 11:46:00,85.3,66.2,30.12,SSE,153,8.0,13.0,53,0.00,,,0.00,Wunderground v.1.15,2013-09-05 16:46:00,
2013-09-05 11:52:00,85.6,66.0,30.12,South,183,8.0,13.0,52,0.00,,,0.00,Wunderground v.1.15,2013-09-05 16:52:00,
2013-09-05 11:57:00,86.0,64.0,30.12,South,175,9.0,13.0,48,0.00,,,0.00,Wunderground v.1.15,2013-09-05 16:57:00,
2013-09-05 12:02:00,86.3,65.5,30.12,SSW,200,7.0,11.0,50,0.00,,,0.00,Wunderground v.1.15,2013-09-05 17:02:00,
2013-09-05 12:08:00,86.5,66.2,30.12,SE,138,7.0,11.0,51,0.00,,,0.00,Wunderground v.1.15,2013-09-05 17:08:00,
2013-09-05 12:13:00,86.9,65.4,30.12,SE,142,7.0,12.0,49,0.00,,,0.00,Wunderground v.1.15,2013-09-05 17:13:00,
2013-09-05 12:18:00,86.8,65.3,30.12,SE,131,7.0,12.0,49,0.00,,,0.00,Wunderground v.1.15,2013-09-05 17:18:00,
2013-09-05 12:23:00,87.3,64.6,30.11,SE,141,7.0,11.0,47,0.00,,,0.00,Wunderground v.1.15,2013-09-05 17:23:00,
2013-09-05 12:29:00,87.7,65.6,30.11,ESE,120,7.0,11.0,48,0.00,,,0.00,Wunderground v.1.15,2013-09-05 17:29:00,
2013-09-05 12:34:00,88.1,65.3,30.11,South,180,7.0,11.0,47,0.00,,,0.00,Wunderground v.1.15,2013-09-05 17:34:00,
2013-09-05 12:40:00,87.8,65.1,30.10,SSW,205,7.0,7.0,47,0.00,,,0.00,Wunderground v.1.15,2013-09-05 17:40:00,
2013-09-05 12:45:00,88.1,65.9,30.10,SSE,155,7.0,11.0,48,0.00,,,0.00,Wunderground v.1.15,2013-09-05 17:45:00,
2013-09-05 12:51:00,88.5,65.7,30.10,SSE,164,6.0,12.0,47,0.00,,,0.00,Wunderground v.1.15,2013-09-05 17:51:00,
2013-09-05 12:57:00,88.5,64.4,30.10,SE,146,7.0,14.0,45,0.00,,,0.00,Wunderground v.1.15,2013-09-05 17:57:00,
2013-09-05 13:02:00,88.6,65.8,30.10,South,170,5.0,7.0,47,0.00,,,0.00,Wunderground v.1.15,2013-09-05 18:02:00,
2013-09-05 13:08:00,89.3,65.8,30.09,SE,144,5.0,9.0,46,0.00,,,0.00,Wunderground v.1.15,2013-09-05 18:08:00,
2013-09-05 13:14:00,89.1,65.0,30.09,South,178,6.0,9.0,45,0.00,,,0.00,Wunderground v.1.15,2013-09-05 18:14:00,
2013-09-05 13:20:00,89.6,65.4,30.09,SE,127,5.0,8.0,45,0.00,,,0.00,Wunderground v.1.15,2013-09-05 18:20:00,
2013-09-05 13:26:00,90.0,64.5,30.09,East,101,5.0,10.0,43,0.00,,,0.00,Wunderground v.1.15,2013-09-05 18:26:00,
2013-09-05 13:32:00,89.9,64.4,30.09,SSE,165,6.0,9.0,43,0.00,,,0.00,Wunderground v.1.15,2013-09-05 18:32:00,
2013-09-05 13:37:00,89.6,64.8,30.08,SSE,168,6.0,9.0,44,0.00,,,0.00,Wunderground v.1.15,2013-09-05 18:37:00,
2013-09-05 13:42:00,89.7,64.9,30.08,SSW,205,6.0,10.0,44,0.00,,,0.00,Wunderground v.1.15,2013-09-05 18:42:00,
2013-09-05 13:47:00,89.9,65.1,30.08,South,173,6.0,11.0,44,0.00,,,0.00,Wunderground v.1.15,2013-09-05 18:47:00,
2013-09-05 13:52:00,90.3,63.4,30.08,South,181,6.0,9.0,41,0.00,,,0.00,Wunderground v.1.15,2013-09-05 18:52:00,
2013-09-05 13:57:00,90.7,63.8,30.08,SSE,147,5.0,9.0,41,0.00,,,0.00,Wunderground v.1.15,2013-09-05 18:57:00,
2013-09-05 14:02:00,90.6,64.4,30.08,South,174,5.0,9.0,42,0.00,,,0.00,Wunderground v.1.15,2013-09-05 19:02:00,
2013-09-05 14:08:00,90.7,63.8,30.08,SE,144,7.0,11.0,41,0.00,,,0.00,Wunderground v.1.15,2013-09-05 19:08:00,
2013-09-05 14:13:00,90.8,63.1,30.07,SSE,158,6.0,9.0,40,0.00,,,0.00,Wunderground v.1.15,2013-09-05 19:13:00,
2013-09-05 14:18:00,90.9,63.2,30.07,SSE,147,4.0,13.0,40,0.00,,,0.00,Wunderground v.1.15,2013-09-05 19:18:00,
2013-09-05 14:24:00,91.1,64.8,30.07,SSE,166,5.0,14.0,42,0.00,,,0.00,Wunderground v.1.15,2013-09-05 19:24:00,
2013-09-05 14:29:00,91.4,66.4,30.06,WNW,303,5.0,14.0,44,0.00,,,0.00,Wunderground v.1.15,2013-09-05 19:29:00,
2013-09-05 14:35:00,91.4,63.7,30.07,ESE,112,6.0,11.0,40,0.00,,,0.00,Wunderground v.1.15,2013-09-05 19:35:00,
2013-09-05 14:41:00,91.3,64.3,30.07,South,169,7.0,11.0,41,0.00,,,0.00,Wunderground v.1.15,2013-09-05 19:41:00,
2013-09-05 14:46:00,91.4,63.7,30.06,WSW,246,6.0,12.0,40,0.00,,,0.00,Wunderground v.1.15,2013-09-05 19:46:00,
2013-09-05 14:51:00,91.4,64.4,30.06,South,185,6.0,12.0,41,0.00,,,0.00,Wunderground v.1.15,2013-09-05 19:51:00,
2013-09-05 14:57:00,91.4,65.1,30.06,ESE,119,5.0,12.0,42,0.00,,,0.00,Wunderground v.1.15,2013-09-05 19:57:00,
2013-09-05 15:03:00,91.4,64.4,30.06,SE,138,7.0,14.0,41,0.00,,,0.00,Wunderground v.1.15,2013-09-05 20:03:00,
2013-09-05 15:08:00,91.5,63.8,30.06,SE,137,8.0,15.0,40,0.00,,,0.00,Wunderground v.1.15,2013-09-05 20:08:00,
2013-09-05 15:14:00,91.5,65.2,30.06,SE,126,9.0,16.0,42,0.00,,,0.00,Wunderground v.1.15,2013-09-05 20:14:00,
2013-09-05 15:19:00,91.7,64.0,30.06,ESE,108,9.0,16.0,40,0.00,,,0.00,Wunderground v.1.15,2013-09-05 20:19:00,
2013-09-05 15:25:00,91.5,63.1,30.05,SSE,156,8.0,14.0,39,0.00,,,0.00,Wunderground v.1.15,2013-09-05 20:25:00,
2013-09-05 15:31:00,91.7,62.5,30.05,SE,142,9.0,12.0,38,0.00,,,0.00,Wunderground v.1.15,2013-09-05 20:31:00,
2013-09-05 15:36:00,91.7,64.0,30.05,East,94,8.0,12.0,40,0.00,,,0.00,Wunderground v.1.15,2013-09-05 20:36:00,
2013-09-05 15:41:00,91.8,62.6,30.05,SE,131,8.0,13.0,38,0.00,,,0.00,Wunderground v.1.15,2013-09-05 20:41:00,
2013-09-05 15:46:00,91.9,63.4,30.05,SSE,161,9.0,16.0,39,0.00,,,0.00,Wunderground v.1.15,2013-09-05 20:46:00,
2013-09-05 15:51:00,91.6,63.1,30.05,SE,128,8.0,10.0,39,0.00,,,0.00,Wunderground v.1.15,2013-09-05 20:51:00,
2013-09-05 15:56:00,91.7,63.2,30.05,ENE,74,8.0,13.0,39,0.00,,,0.00,Wunderground v.1.15,2013-09-05 20:56:00,
2013-09-05 16:01:00,91.8,61.8,30.05,SSE,154,7.0,10.0,37,0.00,,,0.00,Wunderground v.1.15,2013-09-05 21:01:00,
2013-09-05 16:06:00,92.0,61.2,30.05,SE,139,8.0,13.0,36,0.00,,,0.00,Wunderground v.1.15,2013-09-05 21:06:00,
2013-09-05 16:12:00,91.9,62.7,30.04,SE,140,7.0,12.0,38,0.00,,,0.00,Wunderground v.1.15,2013-09-05 21:12:00,
2013-09-05 16:17:00,91.9,63.4,30.04,ENE,76,8.0,15.0,39,0.00,,,0.00,Wunderground v.1.15,2013-09-05 21:17:00,
2013-09-05 16:23:00,92.0,62.8,30.04,ESE,118,11.0,13.0,38,0.00,,,0.00,Wunderground v.1.15,2013-09-05 21:23:00,
2013-09-05 16:28:00,92.1,61.3,30.04,SE,136,10.0,13.0,36,0.00,,,0.00,Wunderground v.1.15,2013-09-05 21:28:00,
2013-09-05 16:33:00,91.9,60.3,30.04,ESE,107,10.0,17.0,35,0.00,,,0.00,Wunderground v.1.15,2013-09-05 21:33:00,
2013-09-05 16:38:00,91.8,62.6,30.04,ESE,120,9.0,17.0,38,0.00,,,0.00,Wunderground v.1.15,2013-09-05 21:38:00,
2013-09-05 16:43:00,91.9,61.9,30.04,East,92,8.0,14.0,37,0.00,,,0.00,Wunderground v.1.15,2013-09-05 21:43:00,
2013-09-05 16:49:00,92.1,62.8,30.04,ESE,109,8.0,15.0,38,0.00,,,0.00,Wunderground v.1.15,2013-09-05 21:49:00,
2013-09-05 16:54:00,92.0,63.5,30.03,East,101,7.0,13.0,39,0.00,,,0.00,Wunderground v.1.15,2013-09-05 21:54:00,
2013-09-05 16:59:00,91.9,63.4,30.03,SE,133,8.0,15.0,39,0.00,,,0.00,Wunderground v.1.15,2013-09-05 21:59:00,
2013-09-05 17:04:00,91.9,62.7,30.03,East,92,9.0,13.0,38,0.00,,,0.00,Wunderground v.1.15,2013-09-05 22:04:00,
2013-09-05 17:10:00,91.5,63.1,30.03,East,88,9.0,15.0,39,0.00,,,0.00,Wunderground v.1.15,2013-09-05 22:10:00,
2013-09-05 17:15:00,91.3,62.1,30.03,ESE,108,10.0,15.0,38,0.00,,,0.00,Wunderground v.1.15,2013-09-05 22:15:00,
2013-09-05 17:21:00,91.5,63.1,30.03,ESE,117,9.0,9.0,39,0.00,,,0.00,Wunderground v.1.15,2013-09-05 22:21:00,
2013-09-05 17:26:00,91.6,63.1,30.03,SSE,151,8.0,11.0,39,0.00,,,0.00,Wunderground v.1.15,2013-09-05 22:26:00,
2013-09-05 17:31:00,91.7,64.0,30.03,SE,129,7.0,7.0,40,0.00,,,0.00,Wunderground v.1.15,2013-09-05 22:31:00,
2013-09-05 17:37:00,91.7,62.5,30.03,East,101,7.0,12.0,38,0.00,,,0.00,Wunderground v.1.15,2013-09-05 22:37:00,
2013-09-05 17:42:00,91.4,63.0,30.03,SE,129,9.0,14.0,39,0.00,,,0.00,Wunderground v.1.15,2013-09-05 22:42:00,
2013-09-05 17:48:00,91.3,62.9,30.03,SE,125,9.0,15.0,39,0.00,,,0.00,Wunderground v.1.15,2013-09-05 22:48:00,
2013-09-05 17:53:00,91.1,62.7,30.03,ESE,119,9.0,13.0,39,0.00,,,0.00,Wunderground v.1.15,2013-09-05 22:53:00,
2013-09-05 17:58:00,90.9,63.2,30.03,SE,132,10.0,17.0,40,0.00,,,0.00,Wunderground v.1.15,2013-09-05 22:58:00,
2013-09-05 18:03:00,90.6,63.0,30.03,ESE,106,11.0,13.0,40,0.00,,,0.00,Wunderground v.1.15,2013-09-05 23:03:00,
2013-09-05 18:08:00,90.5,63.6,30.03,SE,132,10.0,13.0,41,0.00,,,0.00,Wunderground v.1.15,2013-09-05 23:08:00,
2013-09-05 18:13:00,90.4,62.8,30.03,ESE,105,9.0,13.0,40,0.00,,,0.00,Wunderground v.1.15,2013-09-05 23:13:00,
2013-09-05 18:18:00,90.1,63.2,30.02,SE,125,10.0,15.0,41,0.00,,,0.00,Wunderground v.1.15,2013-09-05 23:18:00,
2013-09-05 18:24:00,89.9,63.0,30.02,ESE,103,10.0,15.0,41,0.00,,,0.00,Wunderground v.1.15,2013-09-05 23:24:00,
2013-09-05 18:30:00,89.7,63.6,30.02,East,95,10.0,16.0,42,0.00,,,0.00,Wunderground v.1.15,2013-09-05 23:30:00,
2013-09-05 18:35:00,89.5,64.0,30.02,SE,140,10.0,16.0,43,0.00,,,0.00,Wunderground v.1.15,2013-09-05 23:35:00,
2013-09-05 18:40:00,89.4,63.3,30.02,ESE,117,9.0,11.0,42,0.00,,,0.00,Wunderground v.1.15,2013-09-05 23:40:00,
2013-09-05 18:45:00,89.2,63.8,30.03,ESE,114,8.0,11.0,43,0.00,,,0.00,Wunderground v.1.15,2013-09-05 23:45:00,
2013-09-05 18:50:00,89.1,63.7,30.03,ESE,117,7.0,8.0,43,0.00,,,0.00,Wunderground v.1.15,2013-09-05 23:50:00,
2013-09-05 18:56:00,88.8,63.4,30.02,ESE,107,8.0,13.0,43,0.00,,,0.00,Wunderground v.1.15,2013-09-05 23:56:00,
2013-09-05 19:01:00,88.5,63.1,30.02,ESE,123,8.0,12.0,43,0.00,,,0.00,Wunderground v.1.15,2013-09-06 00:01:00,
2013-09-05 19:07:00,88.1,63.4,30.03,ESE,112,8.0,12.0,44,0.00,,,0.00,Wunderground v.1.15,2013-09-06 00:07:00,
2013-09-05 19:12:00,87.9,63.9,30.03,ESE,120,7.0,10.0,45,0.00,,,0.00,Wunderground v.1.15,2013-09-06 00:12:00,
2013-09-05 19:17:00,87.6,63.6,30.02,ESE,123,6.0,11.0,45,0.00,,,0.00,Wunderground v.1.15,2013-09-06 00:17:00,
2013-09-05 19:23:00,87.3,64.0,30.02,SE,137,6.0,9.0,46,0.00,,,0.00,Wunderground v.1.15,2013-09-06 00:23:00,
2013-09-05 19:28:00,86.9,63.6,30.02,ESE,106,6.0,11.0,46,0.00,,,0.00,Wunderground v.1.15,2013-09-06 00:28:00,
2013-09-05 19:34:00,86.5,63.9,30.02,SE,125,6.0,9.0,47,0.00,,,0.00,Wunderground v.1.15,2013-09-06 00:34:00,
2013-09-05 19:40:00,86.1,64.1,30.02,East,98,5.0,5.0,48,0.00,,,0.00,Wunderground v.1.15,2013-09-06 00:40:00,
2013-09-05 19:46:00,85.7,64.3,30.02,East,101,5.0,8.0,49,0.00,,,0.00,Wunderground v.1.15,2013-09-06 00:46:00,
2013-09-05 19:51:00,85.3,64.0,30.02,ESE,120,5.0,7.0,49,0.00,,,0.00,Wunderground v.1.15,2013-09-06 00:51:00,
2013-09-05 19:56:00,84.9,64.2,30.02,ESE,121,5.0,8.0,50,0.00,,,0.00,Wunderground v.1.15,2013-09-06 00:56:00,
2013-09-05 20:02:00,84.5,63.8,30.02,ESE,119,5.0,7.0,50,0.00,,,0.00,Wunderground v.1.15,2013-09-06 01:02:00,
2013-09-05 20:08:00,84.1,64.0,30.02,ESE,105,5.0,9.0,51,0.00,,,0.00,Wunderground v.1.15,2013-09-06 01:08:00,
2013-09-05 20:14:00,83.8,63.7,30.02,ESE,110,5.0,7.0,51,0.00,,,0.00,Wunderground v.1.15,2013-09-06 01:14:00,
2013-09-05 20:19:00,83.5,64.0,30.02,ESE,116,5.0,8.0,52,0.00,,,0.00,Wunderground v.1.15,2013-09-06 01:19:00,
2013-09-05 20:24:00,83.2,63.7,30.02,ESE,107,5.0,9.0,52,0.00,,,0.00,Wunderground v.1.15,2013-09-06 01:24:00,
2013-09-05 20:30:00,82.7,63.8,30.03,ESE,107,5.0,7.0,53,0.00,,,0.00,Wunderground v.1.15,2013-09-06 01:30:00,
2013-09-05 20:36:00,82.3,64.0,30.03,SE,137,5.0,9.0,54,0.00,,,0.00,Wunderground v.1.15,2013-09-06 01:36:00,
2013-09-05 20:41:00,81.9,63.6,30.03,SE,134,6.0,8.0,54,0.00,,,0.00,Wunderground v.1.15,2013-09-06 01:41:00,
2013-09-05 20:46:00,81.7,64.0,30.03,SE,133,6.0,9.0,55,0.00,,,0.00,Wunderground v.1.15,2013-09-06 01:46:00,
2013-09-05 20:52:00,81.4,64.2,30.03,SE,131,6.0,9.0,56,0.00,,,0.00,Wunderground v.1.15,2013-09-06 01:52:00,
2013-09-05 20:57:00,81.2,64.0,30.03,SE,134,6.0,9.0,56,0.00,,,0.00,Wunderground v.1.15,2013-09-06 01:57:00,
2013-09-05 21:02:00,81.0,64.3,30.03,ESE,105,6.0,9.0,57,0.00,,,0.00,Wunderground v.1.15,2013-09-06 02:02:00,
2013-09-05 21:08:00,80.7,64.1,30.04,SE,126,6.0,10.0,57,0.00,,,0.00,Wunderground v.1.15,2013-09-06 02:08:00,
2013-09-05 21:13:00,80.7,64.5,30.04,ESE,123,6.0,9.0,58,0.00,,,0.00,Wunderground v.1.15,2013-09-06 02:13:00,
2013-09-05 21:19:00,80.5,64.4,30.04,SE,127,6.0,10.0,58,0.00,,,0.00,Wunderground v.1.15,2013-09-06 02:19:00,
2013-09-05 21:24:00,80.3,64.2,30.04,ESE,117,6.0,8.0,58,0.00,,,0.00,Wunderground v.1.15,2013-09-06 02:24:00,
2013-09-05 21:29:00,80.1,64.5,30.04,SE,126,6.0,8.0,59,0.00,,,0.00,Wunderground v.1.15,2013-09-06 02:29:00,
2013-09-05 21:34:00,79.9,64.3,30.04,ESE,114,5.0,8.0,59,0.00,,,0.00,Wunderground v.1.15,2013-09-06 02:34:00,
2013-09-05 21:39:00,79.7,64.6,30.04,East,98,5.0,9.0,60,0.00,,,0.00,Wunderground v.1.15,2013-09-06 02:39:00,
2013-09-05 21:44:00,79.5,64.4,30.05,SE,126,6.0,8.0,60,0.00,,,0.00,Wunderground v.1.15,2013-09-06 02:44:00,
2013-09-05 21:50:00,79.2,64.6,30.05,ESE,123,5.0,5.0,61,0.00,,,0.00,Wunderground v.1.15,2013-09-06 02:50:00,
2013-09-05 21:55:00,79.0,64.9,30.04,SE,126,5.0,9.0,62,0.00,,,0.00,Wunderground v.1.15,2013-09-06 02:55:00,
2013-09-05 22:01:00,78.8,64.7,30.05,SE,128,6.0,8.0,62,0.00,,,0.00,Wunderground v.1.15,2013-09-06 03:01:00,
2013-09-05 22:07:00,78.6,64.9,30.05,SE,124,7.0,11.0,63,0.00,,,0.00,Wunderground v.1.15,2013-09-06 03:07:00,
2013-09-05 22:12:00,78.5,64.9,30.05,SE,138,7.0,12.0,63,0.00,,,0.00,Wunderground v.1.15,2013-09-06 03:12:00,
2013-09-05 22:17:00,78.4,65.2,30.05,SE,132,8.0,12.0,64,0.00,,,0.00,Wunderground v.1.15,2013-09-06 03:17:00,
2013-09-05 22:23:00,78.2,65.0,30.05,SE,138,8.0,11.0,64,0.00,,,0.00,Wunderground v.1.15,2013-09-06 03:23:00,
2013-09-05 22:29:00,78.2,65.0,30.05,SE,132,8.0,13.0,64,0.00,,,0.00,Wunderground v.1.15,2013-09-06 03:29:00,
2013-09-05 22:34:00,78.0,64.8,30.05,SE,126,8.0,10.0,64,0.00,,,0.00,Wunderground v.1.15,2013-09-06 03:34:00,
2013-09-05 22:39:00,78.0,65.3,30.06,SE,133,7.0,10.0,65,0.00,,,0.00,Wunderground v.1.15,2013-09-06 03:39:00,
2013-09-05 22:44:00,77.9,65.2,30.06,SE,128,6.0,9.0,65,0.00,,,0.00,Wunderground v.1.15,2013-09-06 03:44:00,
2013-09-05 22:49:00,77.7,65.0,30.06,SE,137,5.0,9.0,65,0.00,,,0.00,Wunderground v.1.15,2013-09-06 03:49:00,
2013-09-05 22:54:00,77.6,65.3,30.07,SE,126,5.0,7.0,66,0.00,,,0.00,Wunderground v.1.15,2013-09-06 03:54:00,
2013-09-05 22:59:00,77.4,65.1,30.06,ESE,108,5.0,8.0,66,0.00,,,0.00,Wunderground v.1.15,2013-09-06 03:59:00,
2013-09-05 23:01:00,77.4,65.1,30.07,SE,126,5.0,8.0,66,0.00,,,0.00,Wunderground v.1.15,2013-09-06 04:01:00,
2013-09-05 23:04:00,77.3,65.1,30.07,ESE,117,5.0,8.0,66,0.00,,,0.00,Wunderground v.1.15,2013-09-06 04:04:00,
2013-09-05 23:06:00,77.2,65.0,30.07,SE,133,5.0,8.0,66,0.00,,,0.00,Wunderground v.1.15,2013-09-06 04:06:00,
2013-09-05 23:07:00,77.1,64.9,30.07,SE,124,5.0,8.0,66,0.00,,,0.00,Wunderground v.1.15,2013-09-06 04:07:00,
2013-09-05 23:10:00,77.0,65.2,30.07,ESE,112,5.0,5.0,67,0.00,,,0.00,Wunderground v.1.15,2013-09-06 04:10:00,
2013-09-05 23:15:00,76.8,65.0,30.07,ESE,111,5.0,8.0,67,0.00,,,0.00,Wunderground v.1.15,2013-09-06 04:15:00,
2013-09-05 23:19:00,76.6,65.2,30.07,SE,135,5.0,9.0,68,0.00,,,0.00,Wunderground v.1.15,2013-09-06 04:19:00,
2013-09-05 23:24:00,76.4,65.1,30.07,SE,126,5.0,8.0,68,0.00,,,0.00,Wunderground v.1.15,2013-09-06 04:24:00,
2013-09-05 23:29:00,76.3,65.4,30.07,SE,126,5.0,9.0,69,0.00,,,0.00,Wunderground v.1.15,2013-09-06 04:29:00,
2013-09-05 23:34:00,76.2,65.3,30.07,SE,129,6.0,8.0,69,0.00,,,0.00,Wunderground v.1.15,2013-09-06 04:34:00,
2013-09-05 23:39:00,76.1,65.2,30.07,SE,132,6.0,8.0,69,0.00,,,0.00,Wunderground v.1.15,2013-09-06 04:39:00,
2013-09-05 23:45:00,75.9,65.0,30.07,SE,133,6.0,9.0,69,0.00,,,0.00,Wunderground v.1.15,2013-09-06 04:45:00,
2013-09-05 23:50:00,75.7,65.2,30.07,SE,139,6.0,6.0,70,0.00,,,0.00,Wunderground v.1.15,2013-09-06 04:50:00,
2013-09-05 23:55:00,75.5,65.0,30.07,SE,133,6.0,8.0,70,0.00,,,0.00,Wunderground v.1.15,2013-09-06 04:55:00,